Weather in Letnerechensky

Russia / Republic of Karelia     64°16′55″N   34°22′59″E
temp.,
°C
wind,
m/s
gust,
m/s
humid.,
%
clouds,
%
prec.,
mm/h
press.,
hPa
HPBL,
m
2 march, tue
tue200:00−1wnw6158167 0.0 997714
03:00−1w6158265 0.0 9971024
06:00−2nw6157998 0.0 9981061
09:00−5nw5148364 0.0 1001774
12:00−4nw612811 0.0 1004842
15:00−3nw6127844 0.0 10061074
18:00−5nw4138229 0.0 1008769
21:00−7wnw3128815 0.0 1008354
3 march, wed
wed300:00−6wnw3109240 0.0 1007295
03:00−6w4119335 0.0 1007376
06:00−5wnw4119396 0.0 1006391
09:00−5wnw499378 0.0 1006410
12:00−4wnw379198 0.0 1004485
15:00−3w368998 0.2 1003579
18:00−5wsw129396 0.0 100021
21:00−5sse229698 0.1 99751
4 march, thu
thu400:00−5ene4896100 0.6 994280
03:00−7ne4897100 0.9 994324
06:00−11n3595100 0.0 994135
09:00−11n259397 0.0 996164
12:00−7nnw249399 0.0 997328
15:00−5nnw379099 0.3 998699
18:00−7nw3894100 0.1 998380
21:00−8nw389596 0.3 999367
5 march, fri
fri500:00−11nw269689 0.1 1000159
03:00−10n5109393 0.4 1003530
06:00−16nne3995100 0.1 1005375
09:00−17nnw379488 0.1 1007238
12:00−13n259175 0.0 1009388
15:00−11nnw258788 0.1 1010670
18:00−13wnw229266 0.0 101020
21:00−14wsw259364 0.0 1010101
6 march, sat
sat600:00−12w3795100 0.1 1009241
03:00−12w369699 0.1 1008155
06:00−13w269698 0.0 1007177
09:00−14w369576 0.0 1006186
12:00−10wsw359151 0.0 1005312
15:00−8wsw359071 0.0 1003415
18:00−11ssw229578 0.0 100221
21:00−13ssw229778 0.0 100020